Regional Weather Roundup
Issued by NWS Albany, NY

Home | Current Version | Previous Version | Graphics & Text | Print | Product List | Glossary Off
Versions: 1 2 3 4 5 6 7 8 9 10 11 12 13 14 15 16 17 18 19 20 21 22 23 24 25 26 27

000
ASUS41 KALY 271310
RWRALY

NEW YORK STATE HOURLY WEATHER ROUNDUP
NATIONAL WEATHER SERVICE ALBANY NY
900 AM EDT SAT MAY 27 2017

NOTE: "FAIR" INDICATES FEW OR NO CLOUDS BELOW 12,000 FEET WITH NO
SIGNIFICANT WEATHER AND/OR NO OBSTRUCTIONS TO VISIBILITY.

NYZ032-033-038>043-046>054-057>066-NYZ062>081-082-084-271400-
EAST


CITY           SKY/WX    TMP DP  RH WIND       PRES   REMARKS
ALBANY         PTSUNNY   57  48  72 N5        29.91R
GLENS FALLS    CLOUDY    56  49  77 N5        29.90
POUGHKEEPSIE   MOSUNNY   61  52  72 NW5       29.87F
NEWBURGH       MOSUNNY   61  55  82 CALM      29.89S
MONTGOMERY     PTSUNNY   65  55  70 CALM      29.87S
WHITE PLAINS   MOSUNNY   64  53  67 VRB3      29.87R
ISLIP          PTSUNNY   65  53  65 N8        29.87S
NEW YORK CITY  MOSUNNY   66  54  65 NW9       29.87S
CENTRAL PARK   SUNNY     65  54  67 N6        29.90S
$$

NYZ005>009-017-018-044>046-055-056-271400-
CENTRAL


CITY           SKY/WX    TMP DP  RH WIND       PRES   REMARKS
FULTON         CLOUDY    59  56  89 CALM      29.90R
SYRACUSE       DRIZZLE   57  56  96 CALM      29.89S FOG
ROME           CLOUDY    57  50  77 CALM      29.91S
ELMIRA         CLOUDY    61  53  75 SW6       29.90S
BINGHAMTON     CLOUDY    55  54  96 NW8       29.90R
MONTICELLO     CLOUDY    57  55  94 NW8       29.91R
$$

NYZ026>034-041>043-087-271400-
NORTH


CITY           SKY/WX    TMP DP  RH WIND       PRES   REMARKS
WATERTOWN      CLOUDY    60  50  69 E7        29.91R
FORT DRUM      NOT AVBL
OGDENSBURG     FAIR      60  54  78 CALM      29.91S
MASSENA        MOSUNNY   59  53  80 CALM      29.92S
SARANAC LAKE   CLOUDY    50  49  96 SW3       29.91R
PLATTSBURGH    MOSUNNY   58  50  75 VRB5      29.90S
$$

NYZ001>004-010>016-019>021-085-271400-
WEST


CITY           SKY/WX    TMP DP  RH WIND       PRES   REMARKS
NIAGARA FALLS  CLOUDY    60  55  83 W3        29.90R HAZE
BUFFALO        CLOUDY    57  54  89 S7        29.90S
DUNKIRK        MOSUNNY   59  54  83 S5        29.92R
JAMESTOWN      CLOUDY    54  50  87 CALM      29.93R
WELLSVILLE     CLOUDY    60  51  72 W3        29.93S
ROCHESTER      CLOUDY    59  55  87 W3        29.91R
PENN YAN       CLOUDY    61  52  72 NW5       29.91S
$$

             KEY
       WCI = WIND CHILL INDEX
       VSB = VISIBILITY
       HX  = HEAT INDEX
$$




USA.gov is the U.S. government's official web portal to all federal, state and local government web resources and services.